Probability
0 0 0 0 0 0 0 0 0 0 0 0 0 0 0 0 0 0 0 0 0 0 0 0 0 0 0 0 0 0 0 0 0 0 0 0 0 0
0 0 0 0 0 0 0 0 0 0 0 0 0 0 0 0 0 0 0 0 0 0 0 0 0 0 0 0 0 0 0 0 0 0 0 0 0 0
0 0 0 0 0 0 0 0 0 0 0 0 0 0 0 0 0 0 0 0 0 0 0 0 0 0 0 0 0 0 0 0 0 0 0 0 0 0
0 0 0 0 0 0 0 0 0 0 0 0 0 0 0 0 0 0 0 0 0 0 0 0 0 0 0 0 0 0 0 0 0 0 0 0 0 0
0 0 0 0 0 0 0 0 0 0 0 0 0 0 0 0 0 0 0 0 0 0 0 0 0 0 0 0 0 0 0 0 0 0 0 0 0 0
0 0 0 0 0 0 0 0 0 0 0 0 0 0 0 0 0 0 0 0 0 0 0 0 0 0 0 0 0 0 0 0 0 0 0 0 0 0
0 0 0 0 0 0 0 0 0 0 0 0 0 0 0 0 0 0 0 0 0 0 0 0 0 0 0 0 0 0 0 0 0 0 0 0 0 0
0 0 0 0 0 0 0 0 0 0 0 0 0 0 0 0 0 0 0 0 0 0 0 0 0 0 0 0 0 0 0 0 0 0 0 0 0 0
0 0 0 0 0 0 0 0 0 0 0 0 0 0 0 0 0 0 0 0 0 0 0 0 0 0 0 0 0 0 0 0 0 0 0 0 0 0
0 0 0 0 0 0 0 0 0 0 0 0 0 0 0 0 0 0 0 0 0 0 0 0 0 0 0 0 0 0 0 0 0 0 0 0 0 0
0 0 0 0 0 0 0 0 0 0 0 0 0 0 0 0 0 0 0 0 0 0 0 0 0 0 0 0 0 0 0 0 0 0 0 0 0 0
0 0 0 0 0 0 0 0 0 0 0 0 0 0 0 0 0 0 0 0 0 0 0 0 0 0 0 0 0 0 0 0 0 0 0 0 0 0
0 0 0 0 0 0 0 0 0 0 0 0 0 0 0 0 0 0 0 0 0 0 0 0 0 0 0 0 0 0 0 0 0 0 0 0 0 0
0 0 0 0 0 0 0 0 0 0 0 0 0 0 0 0 0 0 0 0 0 0 0 0 0 0 0 0 0 0 0 0 0 0 0 0 0 0
0 0 0 0 0 0 0 0 0 0 0 0 0 0 0 0 0 0 0 0 0 0 0 0 0 0 0 0 0 0 0 0 0 0 0 0 0 0
0 0 0 0 0 0 0 0 0 0 0 0 0 0 0 0 0 0 0 0 0 0 0 0 0 0 0 0 0 0 0 0 0 0 0 0 0 0
0 0 0 0 0 0 0 0 0 0 0 0 0 0 0 0 0 0 0 0 0 0 0 0 0 0 0 0 0 0 0 0 0 0 0 0 0 0
0 0 0 0 0 0 0 0 0 0 0 0 0 0 0 0 0 0 0 0 0 0 0 0 0 0 0 0 0 0 0 0 0 0 0 0 0 0
0 0 0 0 0 0 0 0 0 0 0 0 0 0 0 0 0 0 0 0 0 0 0 0 0 0 0 0 0 0 0 0 0 0 0 0 0 0
0 0 0 0 0 0 0 0 0 0 0 0 0 0 0 0 0 0 0 0 0 0 0 0 0 0 0 0 0 0 0 0 0 0 0 0 0 0
0 0 0 0 0 0 0 0 0 0 0 0 0 0 0 0 0 0 0 0 0 0 0 0 0 0 0 0 0 0 0 0 0 0 0 0 0 0
0 0 0 0 0 0 0 0 0 0 0 0 0 0 0 0 0 0 0 0 0 0 0 0 0 0 0 0 0 0 0 0 0 0 0 0 0 0
0 0 0 0 0 0 0 0 0 0 0 0 0 0 0 0 0 0 0 0 0 0 0 0 0 0 0 0 0 0 0 0 0 0 0 0 0 0
Wind_Speed
10 11 11 9 9 9 9 9 10 16 17 12 7 8 10 10 13 13 15 19 26 30 31 31 32 33 33 33 33 32 30 29 27 25 24 23 22 20
8 10 11 9 9 8 9 10 11 13 18 11 8 7 8 9 12 13 14 18 22 27 29 30 31 32 32 32 32 32 31 29 27 26 25 23 22 21
10 11 12 11 10 9 9 9 10 11 17 17 10 7 9 10 10 11 11 12 12 22 27 29 30 30 30 30 30 30 30 28 27 26 24 23 22 21
11 11 13 10 12 10 9 11 10 11 14 20 13 8 9 9 10 10 10 10 11 18 24 27 28 28 28 28 29 28 27 25 25 24 23 22 21 19
11 12 12 11 12 10 11 11 9 9 10 14 15 9 7 5 7 8 10 10 10 13 19 23 25 26 27 27 27 25 23 23 23 22 21 20 19 18
10 11 12 11 12 11 10 11 10 11 10 12 13 11 8 4 4 7 8 8 10 9 13 15 18 22 25 25 24 21 20 21 22 21 19 19 17 16
11 11 12 12 13 12 10 11 10 10 10 10 12 11 9 5 6 6 9 8 8 7 8 9 9 10 11 17 19 18 20 20 20 19 18 17 16 15
11 11 11 10 12 15 17 17 15 13 12 11 12 12 12 10 8 7 8 7 7 5 7 8 6 8 7 7 13 18 19 19 19 18 17 16 16 15
11 10 9 8 10 11 13 15 15 17 18 14 15 15 13 10 8 9 8 8 8 2 4 5 5 7 5 7 14 15 17 17 17 17 17 16 15 14
10 11 11 11 9 11 11 12 12 11 12 11 12 13 12 9 8 9 8 7 4 2 4 4 3 3 3 4 10 13 14 14 15 14 14 14 13 11
10 10 10 12 13 14 12 12 12 10 11 14 15 15 16 15 10 6 5 5 5 3 3 2 1 1 1 2 4 8 10 12 12 12 12 11 10 9
8 8 10 12 14 15 10 10 12 11 8 8 8 9 9 8 9 6 5 5 3 2 3 2 2 1 1 1 1 2 4 8 10 10 10 9 8 4
8 8 8 12 15 15 13 9 12 12 9 7 6 5 4 4 4 3 3 4 2 1 2 2 1 1 1 1 1 1 1 2 3 5 6 7 7 4
9 8 8 14 15 14 11 10 13 10 5 4 4 4 4 3 3 3 3 4 4 3 2 2 1 2 2 1 1 2 2 2 2 3 2 4 4 4
7 11 13 14 13 9 9 10 7 4 4 4 4 4 3 3 3 3 4 5 7 7 5 4 2 1 1 1 2 2 1 1 2 3 2 2 1 1
6 7 10 10 7 6 6 5 4 4 4 4 4 3 3 3 3 2 2 2 3 4 7 8 6 3 2 2 1 2 2 2 2 2 2 1 1 2
6 5 4 4 4 4 4 4 4 4 4 3 3 3 3 3 3 3 2 2 2 2 3 4 6 6 6 3 1 2 2 1 2 2 1 2 2 2
5 3 3 3 4 4 4 4 4 4 4 4 3 3 3 3 3 3 3 2 3 3 2 2 2 2 2 4 5 1 1 1 1 1 1 2 3 3
2 2 3 3 3 3 3 4 4 4 4 3 3 3 3 3 3 3 3 3 3 2 2 2 2 1 1 0 3 4 1 1 1 1 2 2 3 3
2 2 2 3 3 3 3 3 4 4 4 3 3 3 3 3 3 3 3 2 2 2 2 2 2 3 2 2 1 1 2 1 1 1 2 2 3 6
2 2 2 3 3 3 3 3 3 3 4 3 3 3 3 3 2 2 2 2 2 1 1 2 3 3 1 0 0 0 1 2 2 2 2 3 4 4
2 2 2 3 3 3 3 3 3 3 3 3 3 3 3 2 2 2 2 1 1 1 1 1 2 1 1 1 1 1 1 2 3 5 5 5 4 3
2 2 2 2 2 2 2 2 3 2 2 2 2 2 2 2 2 2 2 1 1 1 1 1 1 1 1 2 2 1 2 3 3 3 3 4 8 10
Wind_Direction
248 245 245 246 241 238 237 239 259 281 280 271 255 229 230 235 238 240 242 241 241 245 247 248 248 248 246 244 243 241 239 237 236 235 235 234 235 236
259 256 253 252 249 242 239 239 239 258 276 277 265 248 224 232 236 240 244 244 243 246 248 248 249 249 248 246 244 241 239 237 235 235 235 234 235 236
271 266 265 261 258 253 247 244 244 246 266 278 270 259 236 237 241 241 245 246 247 244 247 249 249 249 249 247 246 243 239 236 234 234 234 234 235 236
277 274 272 271 266 263 259 255 254 249 259 275 279 268 249 245 246 246 243 243 246 247 247 249 250 249 249 248 246 243 237 233 232 232 232 233 234 235
280 278 278 276 272 270 268 267 266 263 260 270 278 276 266 250 248 250 249 250 249 249 250 250 250 249 248 247 245 241 234 230 228 227 229 230 231 235
283 281 280 278 277 277 274 271 271 270 267 268 275 278 273 261 246 254 256 246 249 246 247 247 248 248 247 246 244 239 230 225 224 223 223 222 226 233
286 282 280 278 277 276 275 277 276 273 272 271 273 277 273 261 255 251 258 261 250 234 241 242 242 242 241 243 240 231 225 222 220 219 217 216 222 229
288 287 284 279 277 275 273 272 271 273 275 273 274 273 276 272 269 261 263 263 263 217 226 242 227 235 233 230 234 229 222 217 214 214 214 215 219 224
288 289 288 285 281 282 281 279 275 270 268 272 276 276 281 281 277 270 261 261 264 230 206 242 220 233 229 229 230 227 220 215 212 212 213 213 216 219
286 288 290 292 289 289 288 283 277 273 272 269 271 278 283 286 274 271 270 267 268 225 195 239 214 227 219 221 226 224 219 213 209 208 209 206 205 207
291 289 289 290 291 291 288 286 286 282 281 275 273 278 284 288 286 281 266 259 262 228 193 217 180 196 212 209 211 215 211 205 203 201 196 193 195 201
295 291 286 288 292 295 290 288 290 294 296 292 283 283 286 288 287 274 267 261 262 229 174 178 149 131 129 71 108 184 190 191 187 184 184 186 187 183
297 299 299 301 300 300 297 289 290 298 297 294 293 296 299 300 299 295 288 273 263 237 149 160 152 148 123 93 67 57 103 132 154 165 174 179 177 177
294 298 301 305 305 306 304 300 302 302 297 298 304 313 320 327 345 3 18 27 32 46 115 132 143 154 131 124 116 93 72 92 120 127 130 155 162 182
292 298 303 306 308 310 316 319 317 312 309 311 317 327 341 357 11 30 47 57 56 48 41 32 49 107 90 105 117 130 122 105 119 129 134 147 162 190
295 300 305 310 313 319 324 333 336 334 328 326 332 341 357 13 23 24 37 50 59 49 38 34 32 45 61 73 117 149 144 148 144 141 141 173 211 226
300 300 306 316 327 336 340 345 348 350 351 348 346 353 8 20 23 19 17 21 49 50 36 31 37 46 45 45 98 121 124 120 146 148 171 225 235 239
299 299 311 321 327 334 338 343 353 357 353 352 357 1 7 14 19 21 23 32 50 54 47 30 22 40 66 54 36 93 109 110 128 157 210 243 255 249
312 317 324 329 332 337 342 344 348 353 352 359 6 7 9 15 22 26 30 38 48 50 44 26 5 0 324 309 52 26 36 99 164 215 241 255 271 277
359 349 344 342 343 344 347 349 349 353 1 7 12 14 13 16 23 24 28 30 37 40 41 33 18 1 347 349 58 25 15 346 251 256 269 278 283 287
7 5 360 354 352 350 350 352 354 359 4 6 11 14 11 14 23 22 25 40 25 21 26 25 22 8 3 47 126 234 20 358 323 291 282 280 284 281
5 360 357 355 349 347 348 353 358 6 7 8 7 8 6 9 17 15 14 12 16 16 25 28 9 345 326 295 300 305 308 335 319 296 276 265 274 280
353 348 348 348 345 342 343 350 359 3 3 358 358 1 360 0 0 2 7 13 24 33 22 360 356 359 351 338 318 311 309 306 304 299 287 291 292 291